Location: Unspecified
(40.7945°N, 111.1337°W)
Time: 02:06:02
(UTC-06:00)

ISS - Pass Details

Date: 28 March 2019
Orbit: 408 x 410 km, 51.6° (Epoch: 21 April)

Event Time Altitude Azimuth Distance (km) Brightness Sun altitude
Rises 21:38:13 0° 303° (WNW) 2,331 1.5 -21.4°
Reaches altitude 10° 21:41:17 10° 334° (NNW) 1,469 -0.3 -22.0°
Maximum altitude 21:42:48 13° 1° (N) 1,324 -1.0 -22.2°
Enters shadow 21:43:29 12° 15° (NNE) 1,354 -1.1 -22.3°
